When you browse on this site, cookies collect data to enhance your experience and personalize the content and advertising you see.
Visit our Privacy Policy to learn more. By continuing to use the site, you agree to this use of cookies and data.
  • In Latvia
  • List of Countries
  • For 7 days
  • Water Temperature
  • Satellite Maps
  • Weather Map
  • Weather Widgets
  • user-avatar
    Login

    Hourly Weather Yulara

    Today, 18 July, Thursday

    Time Temperature Precipitation Wind Pressure Humidity
    00:00 +10°C° 0 mm 4 mps 721 mmHg 48%
    01:00 +9°C° 0 mm 3 mps 721 mmHg 51%
    02:00 +8°C° 0 mm 3 mps 721 mmHg 55%
    03:00 +8°C° 0 mm 3 mps 721 mmHg 58%
    04:00 +7°C° 0 mm 3 mps 721 mmHg 61%
    05:00 +7°C° 0 mm 3 mps 721 mmHg 63%
    06:00 +7°C° 0 mm 3 mps 721 mmHg 66%
    07:00 +8°C° 0 mm 3 mps 721 mmHg 60%
    08:00 +10°C° 0 mm 3 mps 722 mmHg 55%
    09:00 +12°C° 0 mm 3 mps 722 mmHg 49%
    10:00 +16°C° 0 mm 3 mps 722 mmHg 42%
    11:00 +18°C° 0 mm 3 mps 722 mmHg 34%
    12:00 +21°C° 0 mm 3 mps 722 mmHg 27%
    13:00 +21°C° 0 mm 2 mps 721 mmHg 25%
    14:00 +23°C° 0 mm 1 mps 720 mmHg 22%
    15:00 +22°C° 0 mm 0 mps 720 mmHg 20%
    16:00 +19°C° 0 mm 0 mps 719 mmHg 30%
    17:00 +18°C° 0 mm 1 mps 719 mmHg 40%
    18:00 +14°C° 0 mm 1 mps 719 mmHg 50%
    19:00 +14°C° 0 mm 1 mps 719 mmHg 47%
    20:00 +14°C° 0 mm 2 mps 720 mmHg 45%
    21:00 +13°C° 0 mm 2 mps 720 mmHg 43%
    22:00 +12°C° 0 mm 3 mps 720 mmHg 41%
    23:00 +12°C° 0 mm 3 mps 720 mmHg 40%

    Tomorrow, 19 July, Friday

    Time Temperature Precipitation Wind Pressure Humidity
    00:00 +12°C° 0 mm 3 mps 720 mmHg 38%
    01:00 +11°C° 0 mm 3 mps 720 mmHg 42%
    02:00 +10°C° 0 mm 3 mps 719 mmHg 47%
    03:00 +9°C° 0 mm 3 mps 719 mmHg 51%
    04:00 +9°C° 0 mm 3 mps 719 mmHg 53%
    05:00 +8°C° 0 mm 3 mps 719 mmHg 56%
    06:00 +8°C° 0 mm 3 mps 719 mmHg 58%
    07:00 +10°C° 0 mm 3 mps 720 mmHg 50%
    08:00 +13°C° 0 mm 2 mps 720 mmHg 43%
    09:00 +15°C° 0 mm 2 mps 721 mmHg 35%
    10:00 +18°C° 0 mm 3 mps 721 mmHg 30%
    11:00 +20°C° 0 mm 4 mps 720 mmHg 24%
    12:00 +23°C° 0 mm 5 mps 720 mmHg 19%
    13:00 +25°C° 0 mm 4 mps 720 mmHg 18%
    14:00 +26°C° 0 mm 4 mps 719 mmHg 16%
    15:00 +26°C° 0 mm 4 mps 718 mmHg 15%
    16:00 +23°C° 0 mm 4 mps 718 mmHg 18%
    17:00 +20°C° 0 mm 3 mps 718 mmHg 21%
    18:00 +18°C° 0 mm 3 mps 718 mmHg 23%
    19:00 +17°C° 0 mm 3 mps 718 mmHg 26%
    20:00 +16°C° 0 mm 3 mps 718 mmHg 28%
    21:00 +14°C° 0 mm 3 mps 719 mmHg 30%
    22:00 +13°C° 0 mm 3 mps 718 mmHg 32%
    23:00 +12°C° 0 mm 3 mps 718 mmHg 33%

    Day after tomorrow, 20 July, Saturday

    Time Temperature Precipitation Wind Pressure Humidity
    00:00 +13°C° 0 mm 2 mps 718 mmHg 35%
    01:00 +12°C° 0 mm 2 mps 717 mmHg 36%
    02:00 +12°C° 0 mm 2 mps 717 mmHg 36%
    03:00 +10°C° 0 mm 3 mps 717 mmHg 37%
    04:00 +10°C° 0 mm 3 mps 717 mmHg 37%
    05:00 +10°C° 0 mm 3 mps 717 mmHg 38%
    06:00 +9°C° 0 mm 3 mps 717 mmHg 39%
    07:00 +12°C° 0 mm 3 mps 718 mmHg 35%
    08:00 +14°C° 0 mm 4 mps 718 mmHg 30%
    09:00 +16°C° 0 mm 5 mps 718 mmHg 26%
    10:00 +20°C° 0 mm 6 mps 718 mmHg 23%
    11:00 +23°C° 0 mm 7 mps 718 mmHg 20%
    12:00 +27°C° 0 mm 8 mps 718 mmHg 16%
    13:00 +27°C° 0 mm 8 mps 717 mmHg 16%
    14:00 +28°C° 0 mm 8 mps 716 mmHg 16%
    15:00 +28°C° 0 mm 9 mps 716 mmHg 16%
    16:00 +26°C° 0 mm 7 mps 716 mmHg 19%
    17:00 +23°C° 0 mm 5 mps 716 mmHg 22%
    18:00 +20°C° 0 mm 3 mps 716 mmHg 25%
    19:00 +19°C° 0 mm 4 mps 716 mmHg 26%
    20:00 +16°C° 0 mm 5 mps 717 mmHg 28%
    21:00 +15°C° 0 mm 6 mps 717 mmHg 30%
    22:00 +14°C° 0 mm 6 mps 717 mmHg 38%
    23:00 +13°C° 0 mm 5 mps 717 mmHg 46%

    21 July, Sunday

    Time Temperature Precipitation Wind Pressure Humidity
    00:00 +12°C° 0 mm 5 mps 718 mmHg 54%
    01:00 +10°C° 0 mm 5 mps 718 mmHg 58%
    02:00 +9°C° 0 mm 5 mps 718 mmHg 63%
    03:00 +8°C° 0 mm 4 mps 718 mmHg 68%
    04:00 +7°C° 0 mm 4 mps 718 mmHg 66%
    05:00 +7°C° 0 mm 4 mps 719 mmHg 65%
    06:00 +6°C° 0 mm 4 mps 719 mmHg 63%
    07:00 +8°C° 0 mm 4 mps 719 mmHg 56%
    08:00 +10°C° 0 mm 5 mps 720 mmHg 50%
    09:00 +12°C° 0 mm 5 mps 720 mmHg 43%
    10:00 +14°C° 0 mm 4 mps 720 mmHg 39%
    11:00 +15°C° 0 mm 4 mps 719 mmHg 35%
    12:00 +18°C° 0 mm 3 mps 719 mmHg 31%
    13:00 +19°C° 0 mm 2 mps 718 mmHg 29%
    14:00 +19°C° 0 mm 2 mps 718 mmHg 26%
    15:00 +21°C° 0 mm 1 mps 717 mmHg 24%
    16:00 +19°C° 0 mm 1 mps 717 mmHg 28%
    17:00 +15°C° 0 mm 2 mps 717 mmHg 33%
    18:00 +13°C° 0 mm 2 mps 717 mmHg 37%
    19:00 +13°C° 0 mm 2 mps 717 mmHg 37%
    20:00 +12°C° 0 mm 2 mps 718 mmHg 36%
    21:00 +11°C° 0 mm 3 mps 718 mmHg 35%
    22:00 +11°C° 0 mm 3 mps 718 mmHg 36%
    23:00 +10°C° 0 mm 3 mps 718 mmHg 37%

    22 July, Monday

    Time Temperature Precipitation Wind Pressure Humidity
    00:00 +9°C° 0 mm 3 mps 718 mmHg 37%
    01:00 +9°C° 0 mm 3 mps 718 mmHg 39%
    02:00 +8°C° 0 mm 3 mps 717 mmHg 41%
    03:00 +7°C° 0 mm 3 mps 717 mmHg 43%
    04:00 +7°C° 0 mm 3 mps 717 mmHg 45%
    05:00 +5°C° 0 mm 3 mps 718 mmHg 48%
    06:00 +5°C° 0 mm 3 mps 718 mmHg 50%
    07:00 +8°C° 0 mm 3 mps 718 mmHg 46%
    08:00 +10°C° 0 mm 3 mps 719 mmHg 42%
    09:00 +12°C° 0 mm 3 mps 719 mmHg 38%
    10:00 +14°C° 0 mm 3 mps 719 mmHg 35%
    11:00 +17°C° 0 mm 2 mps 719 mmHg 32%
    12:00 +20°C° 0 mm 2 mps 718 mmHg 30%
    13:00 +21°C° 0 mm 2 mps 718 mmHg 28%
    14:00 +23°C° 0 mm 1 mps 717 mmHg 26%
    15:00 +24°C° 0 mm 1 mps 717 mmHg 24%
    16:00 +21°C° 0 mm 1 mps 717 mmHg 28%
    17:00 +18°C° 0 mm 2 mps 716 mmHg 33%
    18:00 +16°C° 0 mm 2 mps 716 mmHg 37%
    19:00 +15°C° 0 mm 2 mps 717 mmHg 36%
    20:00 +14°C° 0 mm 3 mps 718 mmHg 35%
    21:00 +14°C° 0 mm 3 mps 718 mmHg 34%
    22:00 +13°C° 0 mm 4 mps 718 mmHg 33%
    23:00 +12°C° 0 mm 4 mps 719 mmHg 31%

    23 July, Tuesday

    Time Temperature Precipitation Wind Pressure Humidity
    00:00 +10°C° 0 mm 5 mps 719 mmHg 30%
    01:00 +10°C° 0 mm 5 mps 719 mmHg 30%
    02:00 +9°C° 0 mm 5 mps 719 mmHg 30%
    03:00 +10°C° 0 mm 4 mps 719 mmHg 31%
    04:00 +8°C° 0 mm 4 mps 719 mmHg 32%
    05:00 +8°C° 0 mm 4 mps 720 mmHg 34%
    06:00 +8°C° 0 mm 4 mps 720 mmHg 35%
    07:00 +9°C° 0 mm 5 mps 721 mmHg 35%
    08:00 +12°C° 0 mm 5 mps 722 mmHg 34%
    09:00 +13°C° 0 mm 6 mps 722 mmHg 34%
    10:00 +15°C° 0 mm 6 mps 722 mmHg 31%
    11:00 +17°C° 0 mm 5 mps 722 mmHg 28%
    12:00 +20°C° 0 mm 5 mps 722 mmHg 25%
    13:00 +21°C° 0 mm 5 mps 721 mmHg 25%
    14:00 +22°C° 0 mm 5 mps 721 mmHg 24%
    15:00 +23°C° 0 mm 4 mps 720 mmHg 24%
    16:00 +21°C° 0 mm 4 mps 720 mmHg 28%
    17:00 +19°C° 0 mm 4 mps 721 mmHg 31%
    18:00 +17°C° 0 mm 4 mps 721 mmHg 35%
    19:00 +15°C° 0 mm 4 mps 722 mmHg 38%
    20:00 +14°C° 0 mm 5 mps 722 mmHg 42%
    21:00 +13°C° 0 mm 6 mps 723 mmHg 46%
    22:00 +12°C° 0 mm 5 mps 723 mmHg 49%
    23:00 +10°C° 0 mm 5 mps 723 mmHg 52%
    Show more